Location: Brunembert
(50.7122°N, 1.8935°E)
Time: 09:05:31
(UTC+00:00)

Nimbus 7 Rocket - Pass Details

Date: 22 April 2021
Orbit: 922 x 965 km, 99.4° (Epoch: 05 May)

Event Time Altitude Azimuth Distance (km) Brightness Sun altitude
Rises 23:31:05 0° 17° (NNE) 3,586 8.5 -26.6°
Reaches altitude 10° 23:33:32 10° 19° (NNE) 2,636 7.6 -26.6°
Maximum altitude 23:39:25 75° 105° (ESE) 958 4.3 -26.7°
Enters shadow 23:39:53 71° 146° (SE) 977 4.2 -26.7°
